Location: Shenandoah County Park
(38.9356°N, 78.4524°W)
Time: 10:50:24
(UTC-05:00)

Tiangong - Visible Passes

Search period start: 03 December 2022 00:00
Search period end: 13 December 2022 00:00
Orbit: 386 x 394 km, 41.5° (Epoch: 02 December)

Date Brightness Start Highest point End Pass type
(mag) Time Alt. Az. Time Alt. Az. Time Alt. Az.
03 Dec -1.7 18:32:53 10° W 18:35:49 51° NNW 18:35:49 51° NNW visible
04 Dec -1.9 17:34:45 10° W 17:37:55 62° N 17:40:33 14° ENE visible
04 Dec 0.7 19:11:56 10° WNW 19:12:52 18° WNW 19:12:52 18° WNW visible
05 Dec -1.8 18:13:49 10° WNW 18:16:56 51° N 18:17:35 42° NE visible
06 Dec -0.5 18:52:41 10° WNW 18:54:36 33° WNW 18:54:36 33° WNW visible
07 Dec -2.0 17:54:31 10° WNW 17:57:39 58° N 17:59:21 24° E visible
07 Dec 1.4 19:31:31 10° W 19:31:40 11° W 19:31:40 11° W visible
08 Dec -2.1 18:33:15 10° WNW 18:36:26 74° SSW 18:36:28 74° SSW visible
09 Dec -2.2 17:35:00 10° WNW 17:38:11 77° NNE 17:41:21 10° ESE visible
09 Dec 0.6 19:12:13 10° W 19:13:42 20° WSW 19:13:42 20° WSW visible
10 Dec -1.0 18:13:42 10° W 18:16:45 42° SSW 18:18:44 18° SE visible
11 Dec 0.8 18:53:14 10° WSW 18:55:00 14° SW 18:56:20 11° S visible
12 Dec 0.3 17:54:11 10° W 17:56:47 23° SSW 17:59:25 10° SSE visible
